Hearne, TX

3:09 AM CST on November 20, 2019 (GMT -0600)
Hearne

Weather History for KLHB - October, 2019

Change the Weather History Date:

Tuesday, October 22, 2019

  Actual Average (KCLL) Record (KCLL)
Temperature  
Mean Temperature 62 °F -  
Max Temperature 79 °F 78 °F 95 °F (1939)
Min Temperature 45 °F 57 °F 38 °F (1911)
Degree Days  
Heating Degree Days 3    
Growing Degree Days 12 (Base 50)    
Moisture  
Dew Point 44 °F    
Average Humidity 58    
Maximum Humidity 95    
Minimum Humidity 21    
Precipitation  
Precipitation 0.00 in - - ()
Sea Level Pressure  
Sea Level Pressure 30.16 in    
Wind  
Wind Speed 1 mph ()    
Max Wind Speed 9 mph    
Max Gust Speed -    
Visibility 10.0 miles    
Events      
Averages and records for this station are not official NWS values.
T = Trace of Precipitation, MM = Missing Value Source: Averaged Metar Reports

Daily Weather History Graph

Daily Weather History Graph

Search for Another Location

Airport or City:

Astronomy

Oct. 22, 2019 Rise Set
Actual Time 7:33 AM CDT 6:47 PM CDT
Civil Twilight 7:09 AM CDT 7:12 PM CDT
Nautical Twilight 6:41 AM CDT 7:40 PM CDT
Astronomical Twilight 6:12 AM CDT 8:08 PM CDT
Moon 1:17 AM CDT (10/22) 3:27 PM CDT (10/22)
Length of Visible Light 12h 02m
Length of Day
11h 13m
Last Quarter, 37% of the Moon is Illuminated
Oct 22
Last Quarter
Oct 27
New
Nov 4
First Quarter
Nov 12
Full
Nov 19
Last Quarter

Hourly Weather History & Observations

Time (CDT) Temp. Dew Point Humidity Pressure Visibility Wind Dir Wind Speed Gust Speed Precip Events Conditions
12:15 AM 56.7 °F 44.6 °F 64% 30.09 in 10.0 mi Calm Calm - N/A   Clear
12:35 AM 55.2 °F 44.8 °F 68% 30.10 in 10.0 mi Calm Calm - N/A   Clear
12:55 AM 52.3 °F 45.0 °F 76% 30.10 in 10.0 mi Calm Calm - N/A   Clear
1:15 AM 53.2 °F 44.6 °F 72% 30.10 in 10.0 mi Calm Calm - N/A   Clear
1:35 AM 53.2 °F 43.9 °F 71% 30.10 in 10.0 mi Calm Calm - N/A   Clear
1:55 AM 52.7 °F 44.1 °F 72% 30.10 in 10.0 mi Calm Calm - N/A   Clear
2:15 AM 52.7 °F 46.2 °F 79% 30.11 in 10.0 mi Calm Calm - N/A   Clear
2:35 AM 52.3 °F 44.8 °F 75% 30.11 in 10.0 mi Calm Calm - N/A   Clear
2:55 AM 51.4 °F 44.8 °F 78% 30.11 in 10.0 mi Calm Calm - N/A   Clear
3:15 AM 49.3 °F 44.1 °F 82% 30.11 in 10.0 mi Calm Calm - N/A   Clear
3:35 AM 49.1 °F 44.4 °F 84% 30.11 in 10.0 mi Calm Calm - N/A   Clear
3:55 AM 48.6 °F 45.5 °F 89% 30.12 in 10.0 mi Calm Calm - N/A   Clear
4:15 AM 49.5 °F 45.5 °F 86% 30.12 in 10.0 mi Calm Calm - N/A   Clear
4:35 AM 48.7 °F 45.3 °F 88% 30.12 in 10.0 mi Calm Calm - N/A   Clear
4:55 AM 48.6 °F 45.1 °F 88% 30.12 in 10.0 mi Calm Calm - N/A   Clear
5:15 AM 48.7 °F 45.7 °F 89% 30.13 in 10.0 mi Calm Calm - N/A   Clear
5:35 AM 47.3 °F 44.6 °F 90% 30.13 in 10.0 mi Calm Calm - N/A   Clear
5:55 AM 46.8 °F 44.4 °F 92% 30.14 in 10.0 mi Calm Calm - N/A   Clear
6:15 AM 45.7 °F 43.2 °F 91% 30.15 in 10.0 mi Calm Calm - N/A   Clear
6:55 AM 46.2 °F 43.7 °F 91% 30.16 in 10.0 mi Calm Calm - N/A   Clear
7:15 AM 45.7 °F 43.3 °F 92% 30.17 in 10.0 mi Calm Calm - N/A   Clear
7:35 AM 45.5 °F 43.5 °F 93% 30.18 in 10.0 mi Calm Calm - N/A   Clear
7:55 AM 46.2 °F 44.1 °F 92% 30.19 in 10.0 mi Calm Calm - N/A   Clear
8:15 AM 47.3 °F 45.9 °F 95% 30.20 in 10.0 mi Calm Calm - N/A   Clear
8:35 AM 49.5 °F 47.3 °F 92% 30.21 in 10.0 mi WNW 3.5 mph - N/A   Clear
8:55 AM 51.6 °F 47.8 °F 87% 30.21 in 10.0 mi WNW 3.5 mph - N/A   Clear
9:15 AM 53.6 °F 48.9 °F 84% 30.23 in 10.0 mi WNW 4.6 mph - N/A   Clear
9:35 AM 56.3 °F 50.0 °F 79% 30.24 in 10.0 mi NW 4.6 mph - N/A   Clear
9:55 AM 58.1 °F 50.5 °F 76% 30.24 in 10.0 mi NW 4.6 mph - N/A   Clear
10:15 AM 59.9 °F 50.9 °F 72% 30.25 in 10.0 mi West 3.5 mph - N/A   Clear
10:35 AM 62.4 °F 51.8 °F 68% 30.25 in 10.0 mi WNW 3.5 mph - N/A   Clear
10:55 AM 64.8 °F 52.2 °F 64% 30.25 in 10.0 mi WNW 5.8 mph - N/A   Clear
11:15 AM 68.7 °F 51.6 °F 54% 30.25 in 10.0 mi NNW 6.9 mph - N/A   Clear
11:35 AM 71.6 °F 51.1 °F 48% 30.25 in 10.0 mi NNW 4.6 mph - N/A   Clear
11:55 AM 73.0 °F 48.9 °F 42% 30.25 in 10.0 mi North 6.9 mph - N/A   Clear
12:15 PM 73.8 °F 44.4 °F 35% 30.25 in 10.0 mi North 4.6 mph - N/A   Clear
12:35 PM 74.7 °F 40.8 °F 30% 30.24 in 10.0 mi North 5.8 mph - N/A   Clear
12:55 PM 75.9 °F 40.5 °F 28% 30.23 in 10.0 mi NNE 6.9 mph - N/A   Clear
1:15 PM 75.7 °F 37.9 °F 26% 30.23 in 10.0 mi North 4.6 mph - N/A   Clear
1:35 PM 77.5 °F 34.5 °F 21% 30.21 in 10.0 mi East 3.5 mph - N/A   Clear
1:55 PM 77.7 °F 39.2 °F 25% 30.21 in 10.0 mi North 9.2 mph - N/A   Clear
2:15 PM 77.4 °F 37.2 °F 23% 30.19 in 10.0 mi North 4.6 mph - N/A   Clear
2:35 PM 78.4 °F 35.4 °F 21% 30.18 in 10.0 mi Calm Calm - N/A   Clear
2:55 PM 77.5 °F 36.5 °F 23% 30.18 in 10.0 mi NE 6.9 mph - N/A   Clear
3:15 PM 77.9 °F 36.5 °F 22% 30.17 in 10.0 mi NNE 3.5 mph - N/A   Clear
3:35 PM 78.3 °F 37.2 °F 23% 30.16 in 10.0 mi ESE 3.5 mph - N/A   Clear
3:55 PM 78.6 °F 36.5 °F 22% 30.15 in 10.0 mi Calm Calm - N/A   Clear
4:15 PM 79.0 °F 36.0 °F 21% 30.15 in 10.0 mi Calm Calm - N/A   Clear
4:35 PM 78.4 °F 36.0 °F 22% 30.15 in 10.0 mi Calm Calm - N/A   Clear
4:55 PM 78.6 °F 36.0 °F 21% 30.14 in 10.0 mi Calm Calm - N/A   Clear
5:15 PM 78.3 °F 36.9 °F 22% 30.14 in 10.0 mi Calm Calm - N/A   Clear
5:35 PM 77.5 °F 37.4 °F 24% 30.14 in 10.0 mi ENE 3.5 mph - N/A   Clear
5:55 PM 76.6 °F 38.7 °F 25% 30.13 in 10.0 mi Calm Calm - N/A   Clear
6:15 PM 76.1 °F 39.2 °F 26% 30.13 in 10.0 mi Calm Calm - N/A   Clear
6:35 PM 73.9 °F 41.0 °F 30% 30.14 in 10.0 mi Calm Calm - N/A   Clear
6:55 PM 68.9 °F 45.7 °F 43% 30.14 in 10.0 mi Calm Calm - N/A   Clear
7:15 PM 63.1 °F 48.0 °F 58% 30.14 in 10.0 mi Calm Calm - N/A   Clear
7:35 PM 62.8 °F 47.7 °F 58% 30.14 in 10.0 mi Calm Calm - N/A   Clear
7:55 PM 61.7 °F 47.8 °F 60% 30.14 in 10.0 mi Calm Calm - N/A   Clear
8:15 PM 60.1 °F 48.6 °F 66% 30.14 in 10.0 mi Calm Calm - N/A   Clear
8:35 PM 60.3 °F 47.5 °F 63% 30.14 in 10.0 mi Calm Calm - N/A   Clear
8:55 PM 61.0 °F 45.5 °F 57% 30.14 in 10.0 mi Calm Calm - N/A   Clear
9:15 PM 61.5 °F 43.7 °F 52% 30.13 in 10.0 mi Calm Calm - N/A   Clear
9:35 PM 61.7 °F 43.0 °F 50% 30.13 in 10.0 mi Calm Calm - N/A   Clear
10:15 PM 61.3 °F 41.4 °F 48% 30.13 in 10.0 mi Calm Calm - N/A   Clear
10:35 PM 61.0 °F 41.4 °F 48% 30.13 in 10.0 mi Calm Calm - N/A   Clear
10:55 PM 59.9 °F 41.7 °F 51% 30.13 in 10.0 mi Calm Calm - N/A   Clear
11:15 PM 58.6 °F 43.3 °F 57% 30.14 in 10.0 mi Calm Calm - N/A   Clear
11:35 PM 57.6 °F 43.7 °F 60% 30.13 in 10.0 mi Calm Calm - N/A   Clear
11:55 PM 57.4 °F 44.4 °F 62% 30.13 in 10.0 mi Calm Calm - N/A   Clear